TimeEST,TemperatureF,Dew PointF,Humidity,Sea Level PressureIn,VisibilityMPH,Wind Direction,Wind SpeedMPH,Gust SpeedMPH,PrecipitationIn,Events,Conditions,WindDirDegrees,DateUTC
12:53 AM,46.0,32.0,58,29.87,10.0,WSW,6.9,-,N/A,,Overcast,240,2012-02-11 05:53:00
1:53 AM,45.0,30.9,58,29.85,10.0,West,5.8,-,N/A,,Mostly Cloudy,280,2012-02-11 06:53:00
2:53 AM,43.0,30.0,60,29.82,10.0,WNW,3.5,-,N/A,,Clear,300,2012-02-11 07:53:00
3:53 AM,41.0,30.9,67,29.81,10.0,Calm,Calm,-,N/A,,Clear,0,2012-02-11 08:53:00
4:53 AM,39.0,30.9,73,29.82,10.0,Calm,Calm,-,N/A,,Clear,0,2012-02-11 09:53:00
5:53 AM,37.0,30.0,76,29.85,10.0,Calm,Calm,-,N/A,,Clear,0,2012-02-11 10:53:00
6:53 AM,36.0,30.0,79,29.86,10.0,Calm,Calm,-,N/A,,Clear,0,2012-02-11 11:53:00
7:53 AM,37.9,30.0,73,29.88,10.0,West,4.6,-,N/A,,Partly Cloudy,270,2012-02-11 12:53:00
8:53 AM,42.1,30.9,65,29.86,10.0,Variable,3.5,-,N/A,,Mostly Cloudy,0,2012-02-11 13:53:00
9:53 AM,46.0,30.9,56,29.85,10.0,NNE,8.1,-,N/A,,Mostly Cloudy,20,2012-02-11 14:53:00
10:53 AM,44.1,27.0,51,29.87,10.0,NNE,10.4,-,N/A,,Overcast,30,2012-02-11 15:53:00
11:53 AM,43.0,25.0,49,29.88,10.0,North,15.0,-,N/A,,Overcast,10,2012-02-11 16:53:00
12:53 PM,43.0,16.0,34,29.89,10.0,North,19.6,25.3,N/A,,Overcast,350,2012-02-11 17:53:00
1:53 PM,43.0,10.9,27,29.90,10.0,North,18.4,28.8,N/A,,Partly Cloudy,360,2012-02-11 18:53:00
2:53 PM,39.0,7.0,27,29.94,10.0,North,23.0,33.4,N/A,,Clear,360,2012-02-11 19:53:00
3:53 PM,37.0,6.1,28,30.00,10.0,North,18.4,28.8,N/A,,Clear,360,2012-02-11 20:53:00
4:53 PM,33.1,3.9,29,30.05,10.0,North,20.7,31.1,N/A,,Clear,350,2012-02-11 21:53:00
5:53 PM,30.0,1.0,29,30.09,10.0,North,21.9,33.4,N/A,,Clear,350,2012-02-11 22:53:00
6:53 PM,28.0,1.9,33,30.14,10.0,NNW,16.1,24.2,N/A,,Clear,330,2012-02-11 23:53:00
7:53 PM,27.0,1.9,34,30.15,10.0,NNW,16.1,27.6,N/A,,Clear,330,2012-02-12 00:53:00
8:53 PM,26.1,1.9,35,30.16,10.0,NW,12.7,20.7,N/A,,Clear,320,2012-02-12 01:53:00
9:53 PM,25.0,1.0,36,30.17,10.0,NW,8.1,18.4,N/A,,Clear,310,2012-02-12 02:53:00
10:53 PM,25.0,1.0,36,30.19,10.0,NNW,8.1,-,N/A,,Clear,330,2012-02-12 03:53:00
11:53 PM,25.0,1.0,36,30.21,10.0,NW,12.7,18.4,N/A,,Clear,320,2012-02-12 04:53:00